When you browse on this site, cookies collect data to enhance your experience and personalize the content and advertising you see.
Visit our Privacy Policy to learn more. By continuing to use the site, you agree to this use of cookies and data.
  • In Hungary
  • List of Countries
  • For 7 days
  • Water Temperature
  • Satellite Maps
  • Weather Map
  • News
  • Weather Widgets
  • user-avatar
    Login

    Hourly Weather Zenkov

    Today, 20 April, Saturday

    Time Temperature Precipitation Wind Pressure Humidity
    00:00 +6°C° 0 mm 1 mps 758 mmHg 62%
    01:00 +6°C° 0 mm 1 mps 758 mmHg 62%
    02:00 +6°C° 0 mm 1 mps 757 mmHg 61%
    03:00 +5°C° 0 mm 1 mps 757 mmHg 62%
    04:00 +5°C° 0 mm 1 mps 757 mmHg 63%
    05:00 +5°C° 0 mm 1 mps 757 mmHg 64%
    06:00 +7°C° 0 mm 1 mps 757 mmHg 59%
    07:00 +8°C° 0 mm 1 mps 757 mmHg 54%
    08:00 +10°C° 0 mm 1 mps 758 mmHg 49%
    09:00 +11°C° 0 mm 1 mps 757 mmHg 44%
    10:00 +12°C° 0 mm 2 mps 757 mmHg 39%
    11:00 +13°C° 0 mm 2 mps 757 mmHg 34%
    12:00 +13°C° 0 mm 2 mps 757 mmHg 34%
    13:00 +13°C° 0 mm 1 mps 757 mmHg 35%
    14:00 +13°C° 0 mm 1 mps 757 mmHg 35%
    15:00 +13°C° 0 mm 1 mps 757 mmHg 35%
    16:00 +13°C° 0 mm 1 mps 756 mmHg 36%
    17:00 +13°C° 0 mm 1 mps 756 mmHg 37%
    18:00 +13°C° 0 mm 1 mps 756 mmHg 39%
    19:00 +12°C° 0 mm 1 mps 756 mmHg 42%
    20:00 +10°C° 0 mm 0 mps 756 mmHg 44%
    21:00 +10°C° 0 mm 0 mps 756 mmHg 45%
    22:00 +9°C° 0 mm 0 mps 756 mmHg 46%
    23:00 +9°C° 0 mm 0 mps 756 mmHg 47%

    Tomorrow, 21 April, Sunday

    Time Temperature Precipitation Wind Pressure Humidity
    00:00 +9°C° 0 mm 0 mps 756 mmHg 48%
    01:00 +8°C° 0 mm 0 mps 756 mmHg 49%
    02:00 +8°C° 0 mm 0 mps 756 mmHg 50%
    03:00 +9°C° 0 mm 1 mps 756 mmHg 52%
    04:00 +8°C° 0 mm 1 mps 756 mmHg 53%
    05:00 +8°C° 0 mm 1 mps 756 mmHg 54%
    06:00 +10°C° 0 mm 1 mps 756 mmHg 52%
    07:00 +10°C° 0 mm 2 mps 756 mmHg 49%
    08:00 +12°C° 0 mm 2 mps 756 mmHg 47%
    09:00 +13°C° 0 mm 2 mps 756 mmHg 44%
    10:00 +12°C° 0 mm 3 mps 757 mmHg 40%
    11:00 +13°C° 0 mm 3 mps 757 mmHg 37%
    12:00 +13°C° 0 mm 3 mps 756 mmHg 37%
    13:00 +13°C° 0 mm 3 mps 756 mmHg 37%
    14:00 +13°C° 0 mm 3 mps 756 mmHg 37%
    15:00 +13°C° 0 mm 3 mps 756 mmHg 39%
    16:00 +13°C° 0 mm 3 mps 756 mmHg 41%
    17:00 +13°C° 0 mm 2 mps 756 mmHg 42%
    18:00 +12°C° 0 mm 2 mps 756 mmHg 45%
    19:00 +10°C° 0 mm 2 mps 757 mmHg 48%
    20:00 +9°C° 0 mm 2 mps 757 mmHg 51%
    21:00 +9°C° 0 mm 2 mps 757 mmHg 51%
    22:00 +9°C° 0 mm 2 mps 757 mmHg 51%
    23:00 +9°C° 0 mm 2 mps 757 mmHg 52%

    Day after tomorrow, 22 April, Monday

    Time Temperature Precipitation Wind Pressure Humidity
    00:00 +9°C° 0 mm 2 mps 757 mmHg 52%
    01:00 +8°C° 0 mm 2 mps 758 mmHg 53%
    02:00 +8°C° 0 mm 2 mps 758 mmHg 54%
    03:00 +8°C° 0 mm 2 mps 758 mmHg 55%
    04:00 +8°C° 0 mm 2 mps 758 mmHg 56%
    05:00 +8°C° 0 mm 2 mps 758 mmHg 58%
    06:00 +9°C° 0 mm 2 mps 758 mmHg 55%
    07:00 +10°C° 0 mm 2 mps 759 mmHg 52%
    08:00 +11°C° 0 mm 3 mps 759 mmHg 50%
    09:00 +12°C° 0 mm 3 mps 759 mmHg 46%
    10:00 +12°C° 0 mm 3 mps 759 mmHg 41%
    11:00 +13°C° 0 mm 3 mps 759 mmHg 37%
    12:00 +13°C° 0 mm 3 mps 759 mmHg 38%
    13:00 +13°C° 0 mm 3 mps 759 mmHg 38%
    14:00 +14°C° 0 mm 3 mps 759 mmHg 39%
    15:00 +13°C° 0 mm 3 mps 759 mmHg 40%
    16:00 +14°C° 0 mm 2 mps 759 mmHg 41%
    17:00 +14°C° 0 mm 2 mps 759 mmHg 42%
    18:00 +13°C° 0 mm 2 mps 759 mmHg 46%
    19:00 +12°C° 0 mm 1 mps 759 mmHg 49%
    20:00 +10°C° 0 mm 1 mps 759 mmHg 53%
    21:00 +10°C° 0 mm 1 mps 759 mmHg 53%
    22:00 +10°C° 0 mm 1 mps 760 mmHg 53%
    23:00 +11°C° 0 mm 1 mps 760 mmHg 54%

    23 April, Tuesday

    Time Temperature Precipitation Wind Pressure Humidity
    00:00 +9°C° 0 mm 2 mps 760 mmHg 55%
    01:00 +9°C° 0 mm 2 mps 760 mmHg 57%
    02:00 +9°C° 0 mm 2 mps 760 mmHg 59%
    03:00 +8°C° 0 mm 2 mps 760 mmHg 62%
    04:00 +8°C° 0 mm 2 mps 760 mmHg 64%
    05:00 +7°C° 0 mm 2 mps 760 mmHg 66%
    06:00 +9°C° 0 mm 2 mps 760 mmHg 62%
    07:00 +12°C° 0 mm 2 mps 761 mmHg 57%
    08:00 +14°C° 0 mm 2 mps 761 mmHg 53%
    09:00 +14°C° 0 mm 2 mps 761 mmHg 49%
    10:00 +14°C° 0 mm 3 mps 761 mmHg 44%
    11:00 +16°C° 0 mm 3 mps 761 mmHg 40%
    12:00 +16°C° 0 mm 3 mps 761 mmHg 40%
    13:00 +16°C° 0 mm 2 mps 761 mmHg 40%
    14:00 +16°C° 0 mm 2 mps 761 mmHg 40%
    15:00 +16°C° 0 mm 2 mps 761 mmHg 43%
    16:00 +16°C° 0 mm 2 mps 760 mmHg 45%
    17:00 +15°C° 0 mm 1 mps 760 mmHg 47%
    18:00 +15°C° 0 mm 1 mps 760 mmHg 49%
    19:00 +14°C° 0 mm 1 mps 761 mmHg 51%
    20:00 +13°C° 0 mm 1 mps 761 mmHg 54%
    21:00 +12°C° 0 mm 1 mps 761 mmHg 54%
    22:00 +12°C° 0 mm 1 mps 761 mmHg 55%
    23:00 +11°C° 0 mm 1 mps 761 mmHg 56%

    24 April, Wednesday

    Time Temperature Precipitation Wind Pressure Humidity
    00:00 +10°C° 0 mm 1 mps 761 mmHg 57%
    01:00 +10°C° 0 mm 1 mps 761 mmHg 59%
    02:00 +9°C° 0 mm 1 mps 761 mmHg 60%
    03:00 +9°C° 0 mm 1 mps 761 mmHg 61%
    04:00 +9°C° 0 mm 1 mps 761 mmHg 62%
    05:00 +8°C° 0 mm 1 mps 762 mmHg 62%
    06:00 +10°C° 0 mm 1 mps 762 mmHg 58%
    07:00 +12°C° 0 mm 1 mps 762 mmHg 54%
    08:00 +14°C° 0 mm 2 mps 762 mmHg 49%
    09:00 +15°C° 0 mm 2 mps 762 mmHg 45%
    10:00 +16°C° 0 mm 2 mps 762 mmHg 42%
    11:00 +17°C° 0 mm 2 mps 761 mmHg 38%
    12:00 +18°C° 0 mm 2 mps 761 mmHg 37%
    13:00 +18°C° 0 mm 2 mps 761 mmHg 36%
    14:00 +19°C° 0 mm 2 mps 761 mmHg 35%
    15:00 +20°C° 0 mm 1 mps 760 mmHg 36%
    16:00 +20°C° 0 mm 1 mps 760 mmHg 37%
    17:00 +20°C° 0 mm 1 mps 760 mmHg 38%
    18:00 +18°C° 0 mm 1 mps 760 mmHg 42%
    19:00 +14°C° 0 mm 0 mps 760 mmHg 46%
    20:00 +12°C° 0 mm 0 mps 760 mmHg 49%
    21:00 +12°C° 0 mm 0 mps 760 mmHg 51%
    22:00 +12°C° 0 mm 0 mps 760 mmHg 52%
    23:00 +11°C° 0 mm 0 mps 761 mmHg 53%

    25 April, Thursday

    Time Temperature Precipitation Wind Pressure Humidity
    00:00 +11°C° 0 mm 0 mps 761 mmHg 54%
    01:00 +10°C° 0 mm 0 mps 761 mmHg 55%
    02:00 +11°C° 0 mm 1 mps 761 mmHg 56%
    03:00 +11°C° 0 mm 1 mps 761 mmHg 58%
    04:00 +11°C° 0 mm 1 mps 761 mmHg 60%
    05:00 +10°C° 0 mm 1 mps 761 mmHg 61%
    06:00 +12°C° 0 mm 1 mps 761 mmHg 57%
    07:00 +14°C° 0 mm 1 mps 761 mmHg 53%
    08:00 +16°C° 0 mm 1 mps 761 mmHg 49%
    09:00 +19°C° 0 mm 1 mps 761 mmHg 45%
    10:00 +20°C° 0 mm 1 mps 760 mmHg 42%
    11:00 +21°C° 0 mm 1 mps 760 mmHg 38%
    12:00 +22°C° 0 mm 1 mps 760 mmHg 37%
    13:00 +22°C° 0 mm 1 mps 759 mmHg 37%
    14:00 +23°C° 0 mm 2 mps 759 mmHg 36%
    15:00 +21°C° 0 mm 2 mps 759 mmHg 37%
    16:00 +22°C° 0 mm 1 mps 758 mmHg 39%
    17:00 +22°C° 0 mm 1 mps 758 mmHg 41%
    18:00 +20°C° 0 mm 1 mps 758 mmHg 45%
    19:00 +19°C° 0 mm 1 mps 758 mmHg 49%
    20:00 +16°C° 0 mm 1 mps 758 mmHg 53%
    21:00 +15°C° 0 mm 1 mps 757 mmHg 54%
    22:00 +15°C° 0 mm 1 mps 757 mmHg 55%
    23:00 +14°C° 0 mm 1 mps 757 mmHg 56%
    Show more